Weather reports worldwide

Advertisment
Dieppe, France (7040): temperature & dewpoint: 07.07.2020 06:00:00 - 13.07.2020 06:00:00 (CEST)Dieppe, France (7040): temperature 5cm: 07.07.2020 06:00:00 - 13.07.2020 06:00:00 (CEST)Dieppe, France (7040): wind speed & gusts: 07.07.2020 06:00:00 - 13.07.2020 06:00:00 (CEST)Dieppe, France (7040): wind direction: 07.07.2020 06:00:00 - 13.07.2020 06:00:00 (CEST)Dieppe, France (7040): reduced air pressure: 07.07.2020 06:00:00 - 13.07.2020 06:00:00 (CEST)Dieppe, France (7040): visibility: 07.07.2020 06:00:00 - 13.07.2020 06:00:00 (CEST)Dieppe, France (7040): precipitation: 07.07.2020 06:00:00 - 13.07.2020 06:00:00 (CEST)
Date & Time tt [°C] td [°C] tt 5cm [°C] ff [km/h] ff [kn] fx [km/h] fx [kn] dd ppp [hPa] vv [km] rr [mm]
13.07.2020 06:00:00 11,5 9,4 9,8 2 1 8 5 SSE 1025,5 - 0,0
13.07.2020 05:00:00 11,8 9,5 10,0 5 3 9 5 S 1025,7 20 0,0
13.07.2020 04:00:00 12,7 9,5 9,4 3 2 13 7 ESE 1025,9 - 0,0
13.07.2020 03:00:00 13,9 9,7 11,1 6 4 10 6 E 1026,2 - 0,0
13.07.2020 02:00:00 14,5 9,7 12,4 7 4 11 6 ENE 1026,6 20 0,0
13.07.2020 01:00:00 15,6 9,9 14,7 6 4 27 15 E 1026,7 - 0,0
13.07.2020 00:00:00 16,7 10,8 16,0 16 9 43 23 ENE 1026,8 - 0,0
12.07.2020 23:00:00 18,0 13,3 17,2 26 14 46 25 NE 1026,4 20 0,0
12.07.2020 22:00:00 18,1 12,5 17,6 22 12 45 24 NNE 1026,2 - 0,0
12.07.2020 21:00:00 18,2 12,4 18,0 23 12 42 23 NNE 1026,4 - 0,0
12.07.2020 20:00:00 18,3 11,1 19,3 27 15 44 24 N 1026,4 19 0,0
12.07.2020 19:00:00 18,4 10,5 18,9 27 15 41 22 N 1026,7 - 0,0
12.07.2020 18:00:00 18,3 11,1 19,5 23 12 41 22 N 1027,1 - 0,0
12.07.2020 17:00:00 17,9 11,9 19,8 27 15 45 25 N 1027,6 19 0,0
12.07.2020 16:00:00 17,9 12,3 21,9 27 15 40 22 N 1027,9 - 0,0
12.07.2020 15:00:00 18,0 11,8 21,2 25 13 37 20 N 1027,9 - 0,0
12.07.2020 14:00:00 18,2 11,3 20,6 24 13 32 17 N 1028,5 19 0,0
12.07.2020 13:00:00 17,7 12,2 20,3 19 10 29 15 N 1028,5 - 0,0
12.07.2020 12:00:00 17,4 10,7 21,8 11 6 25 13 NNE 1028,7 - 0,0
12.07.2020 11:00:00 17,3 9,9 22,6 10 5 21 11 NNE 1029,0 19 0,0
12.07.2020 10:00:00 17,2 9,4 20,6 13 7 22 12 NE 1029,1 - 0,0
12.07.2020 09:00:00 15,3 10,7 13,4 10 5 16 9 E 1028,8 - 0,0
12.07.2020 08:00:00 9,7 8,1 9,2 9 5 15 8 SSE 1028,4 19 0,0
12.07.2020 07:00:00 8,4 7,3 8,2 10 5 16 9 SSE 1028,3 - 0,0
12.07.2020 06:00:00 8,8 7,7 8,4 10 5 15 8 SSE 1027,9 - 0,0
12.07.2020 05:00:00 9,5 8,4 9,0 9 5 15 8 SSE 1027,8 19 0,0
12.07.2020 04:00:00 10,2 8,8 9,6 7 4 15 8 SSE 1027,9 - 0,0
12.07.2020 03:00:00 11,1 9,2 10,4 6 4 12 6 S 1027,9 - 0,0
12.07.2020 02:00:00 12,1 9,5 10,9 4 2 18 10 S 1028,1 10 0,0
12.07.2020 01:00:00 14,6 10,4 13,1 6 3 16 9 NNW 1028,3 - 0,0
12.07.2020 00:00:00 15,1 11,1 14,3 11 6 20 11 NNW 1028,3 - 0,0
11.07.2020 23:00:00 15,2 11,0 14,5 11 6 18 10 NNW 1028,3 - 0,0
11.07.2020 22:00:00 15,6 11,2 14,9 10 5 18 10 NNW 1028,0 - 0,0
11.07.2020 21:00:00 16,3 9,2 16,1 11 6 19 10 NNW 1027,7 - 0,0
11.07.2020 20:00:00 17,6 10,2 18,4 11 6 19 10 NNW 1027,7 22 0,0
11.07.2020 19:00:00 18,2 10,6 19,1 11 6 22 12 NNW 1027,7 - 0,0
11.07.2020 18:00:00 18,4 9,5 19,9 12 6 20 11 NW 1027,7 - 0,0
11.07.2020 17:00:00 18,4 10,2 20,5 14 8 21 12 NW 1027,7 - 0,0
11.07.2020 16:00:00 18,3 9,9 23,0 12 7 21 12 NW 1027,9 - 0,0
11.07.2020 15:00:00 18,7 10,3 22,6 12 7 21 11 NW 1027,8 - 0,0
11.07.2020 14:00:00 18,7 11,3 20,7 10 5 18 10 NW 1027,8 22 0,0
11.07.2020 13:00:00 18,3 10,9 20,2 10 5 17 9 NNW 1027,4 - 0,0
11.07.2020 12:00:00 17,9 10,8 21,0 10 5 16 9 NW 1027,4 - 0,0
11.07.2020 11:00:00 17,2 11,2 18,2 10 5 17 9 N 1027,0 20 0,0
11.07.2020 10:00:00 15,9 10,0 16,3 10 5 21 12 N 1026,5 - 0,0
11.07.2020 09:00:00 15,4 10,2 13,8 14 8 24 13 N 1026,0 - 0,0
11.07.2020 08:00:00 11,2 8,9 10,1 6 3 16 9 SSE 1025,5 20 0,0
11.07.2020 07:00:00 9,2 7,8 8,8 6 3 15 8 SSE 1024,9 - 0,0
11.07.2020 06:00:00 9,7 8,1 8,9 5 3 20 11 SSE 1024,5 - 0,0
11.07.2020 05:00:00 11,1 8,7 9,8 3 2 13 7 NNW 1023,9 - 0,0
11.07.2020 04:00:00 12,1 9,3 11,3 6 3 15 8 SSE 1023,6 - 0,0
11.07.2020 03:00:00 13,9 10,7 11,9 7 4 16 9 SW 1023,5 - 0,0
11.07.2020 02:00:00 14,3 10,1 13,1 13 7 28 15 WNW 1023,3 20 0,0
11.07.2020 01:00:00 15,7 11,7 15,2 20 11 35 19 NW 1022,9 - 0,0
11.07.2020 00:00:00 15,9 11,1 15,4 19 10 36 19 NW 1022,4 - 0,0
10.07.2020 23:00:00 16,1 11,5 15,5 23 12 37 20 NW 1021,9 - 0,0
10.07.2020 22:00:00 16,1 10,4 15,7 22 12 38 20 WNW 1021,4 - 0,0
10.07.2020 21:00:00 16,6 10,9 16,3 22 12 39 21 WNW 1021,1 - 0,0
10.07.2020 20:00:00 17,4 9,8 18,1 26 14 37 20 WNW 1020,8 - 0,0
10.07.2020 19:00:00 17,7 10,3 18,1 21 11 42 23 WNW 1020,4 - 0,0
10.07.2020 18:00:00 17,5 10,8 18,4 27 14 40 22 WNW 1020,2 - 0,0
10.07.2020 17:00:00 18,0 10,6 19,3 24 13 37 20 WNW 1020,0 20 0,0
10.07.2020 16:00:00 17,9 12,3 21,1 21 12 34 18 WNW 1019,9 - 0,0
10.07.2020 15:00:00 17,0 11,9 18,6 19 10 29 16 WNW 1019,6 - 0,0
10.07.2020 14:00:00 17,5 12,0 17,3 18 10 32 17 NW 1019,3 - 0,0
10.07.2020 13:00:00 16,1 12,3 16,5 19 11 37 20 NNW 1018,6 - 0,0
10.07.2020 12:00:00 15,6 12,5 16,3 22 12 38 21 NNW 1017,8 - 0,0
10.07.2020 11:00:00 15,4 12,7 15,3 26 14 42 23 NW 1016,9 17 0,0
10.07.2020 10:00:00 15,1 12,6 15,1 28 15 43 23 NW 1016,1 - 0,0
10.07.2020 09:00:00 15,5 12,6 15,2 26 14 46 25 NW 1015,3 - 0,0
10.07.2020 08:00:00 15,6 13,3 14,9 33 18 50 27 NW 1014,4 16 0,0
10.07.2020 07:00:00 15,6 13,8 15,0 28 15 40 21 NW 1013,7 - 0,2
10.07.2020 06:00:00 16,1 14,8 15,6 24 13 41 22 W 1012,9 - 0,0
10.07.2020 05:00:00 16,2 14,9 15,7 23 12 44 24 W 1012,8 - 0,0
10.07.2020 04:00:00 16,2 14,9 15,6 26 14 52 28 W 1012,9 - 0,0
10.07.2020 03:00:00 16,0 14,7 15,4 21 12 54 29 WSW 1013,0 - 0,0
10.07.2020 02:00:00 16,7 14,9 16,1 27 14 49 27 WSW 1013,0 16 0,0
10.07.2020 01:00:00 16,8 13,7 16,6 21 11 40 21 WSW 1013,1 - 0,0
10.07.2020 00:00:00 17,0 14,3 16,9 23 12 42 23 WSW 1013,5 - 0,0
09.07.2020 23:00:00 17,4 14,5 17,2 21 12 44 24 WSW 1013,3 16 0,0
09.07.2020 22:00:00 18,0 14,7 17,8 21 11 39 21 WSW 1013,1 - 0,0
09.07.2020 21:00:00 17,9 15,3 18,0 18 10 31 17 W 1013,3 - 0,0
09.07.2020 20:00:00 18,3 15,5 18,6 13 7 33 18 W 1013,6 - 0,0
09.07.2020 19:00:00 19,6 15,9 20,6 19 10 29 16 WNW 1013,5 - 0,0
09.07.2020 18:00:00 20,2 16,0 21,6 19 11 39 21 W 1013,7 - 0,0
09.07.2020 17:00:00 20,4 16,2 22,8 22 12 37 20 W 1014,1 - 0,0
09.07.2020 16:00:00 20,4 16,0 22,6 17 9 29 16 W 1014,4 - 0,0
09.07.2020 15:00:00 20,6 16,0 21,6 14 8 31 17 W 1014,9 - 0,0
09.07.2020 14:00:00 20,9 15,2 21,8 22 12 38 21 W 1015,1 - 0,0
09.07.2020 13:00:00 20,0 15,2 21,9 20 11 40 22 W 1015,4 - 0,0
09.07.2020 12:00:00 20,5 14,8 21,1 21 11 37 20 W 1015,4 - 0,0
09.07.2020 11:00:00 20,9 14,3 23,1 17 9 32 17 W 1015,7 - 0,0
09.07.2020 10:00:00 20,0 14,4 19,4 15 8 29 16 WSW 1015,7 - 0,0
09.07.2020 09:00:00 18,2 14,3 17,7 16 9 30 16 SW 1015,7 - 0,0
09.07.2020 08:00:00 17,2 14,3 16,4 13 7 24 13 SSW 1015,7 18 0,0
09.07.2020 07:00:00 16,5 14,3 16,2 12 6 23 12 SW 1015,7 - 0,0
09.07.2020 06:00:00 16,7 14,7 16,5 14 8 24 13 SW 1016,1 - 0,0
09.07.2020 05:00:00 16,7 14,7 16,5 16 9 28 15 SW 1016,5 18 0,2
09.07.2020 04:00:00 16,8 14,8 16,6 17 9 32 18 WSW 1016,6 - 0,0
09.07.2020 03:00:00 16,9 14,9 16,6 14 8 29 16 SW 1016,9 - 0,0
09.07.2020 02:00:00 16,9 14,7 16,7 17 9 31 17 WSW 1017,1 - 0,0
09.07.2020 01:00:00 17,3 14,8 16,9 16 8 26 14 SW 1017,2 - 0,0
09.07.2020 00:00:00 17,0 15,7 16,8 13 7 32 18 WSW 1017,2 - 0,0
08.07.2020 23:00:00 17,3 15,8 17,0 19 10 33 18 W 1017,5 - 0,0
08.07.2020 22:00:00 18,2 15,4 18,0 21 11 39 21 WSW 1017,5 - 0,0
08.07.2020 21:00:00 18,2 15,6 18,3 23 12 41 22 WSW 1017,5 - 0,0
08.07.2020 20:00:00 18,3 15,9 18,4 24 13 46 25 W 1017,4 8 0,0
08.07.2020 19:00:00 19,0 16,0 19,7 28 15 56 30 W 1017,3 - 0,0
08.07.2020 18:00:00 20,0 16,2 19,7 26 14 50 27 W 1017,5 - 0,0
08.07.2020 17:00:00 19,1 15,8 19,0 26 14 52 28 W 1017,8 - 0,0
08.07.2020 16:00:00 18,1 16,1 18,1 28 15 53 28 WSW 1017,9 - 0,0
08.07.2020 15:00:00 17,6 15,8 16,7 33 18 55 30 WSW 1017,9 - 0,0
08.07.2020 14:00:00 16,9 15,8 16,4 30 16 55 30 W 1017,8 6 0,0
08.07.2020 13:00:00 16,9 15,8 16,4 29 16 50 27 WSW 1017,7 - 0,0
08.07.2020 12:00:00 16,5 15,5 15,8 22 12 42 23 WSW 1017,7 - 0,2
08.07.2020 11:00:00 16,3 15,2 15,8 22 12 44 24 WSW 1017,5 6 0,2
08.07.2020 10:00:00 16,2 14,2 15,9 22 12 43 23 WSW 1017,2 - 0,0
08.07.2020 09:00:00 16,0 13,5 15,6 16 9 37 20 WSW 1017,1 - -
08.07.2020 08:00:00 15,6 13,1 15,3 15 8 30 16 SW 1016,9 20 0,0
08.07.2020 07:00:00 15,3 12,8 14,9 15 8 29 16 SW 1016,8 - 0,0
08.07.2020 06:00:00 15,0 12,3 14,6 16 8 27 15 SW 1017,0 - 0,0
08.07.2020 05:00:00 14,8 11,8 14,5 11 6 24 13 SSW 1017,3 20 0,0
08.07.2020 04:00:00 14,7 11,5 14,7 11 6 24 13 SSW 1017,7 - 0,0
08.07.2020 03:00:00 14,9 12,0 14,7 11 6 21 11 SSW 1018,5 - 0,0
08.07.2020 02:00:00 14,8 11,6 14,5 10 6 19 10 SSW 1019,0 20 0,0
08.07.2020 01:00:00 14,7 11,5 14,1 9 5 22 12 SSW 1019,4 - 0,0
08.07.2020 00:00:00 14,7 11,7 14,1 11 6 21 12 SW 1019,9 - 0,0
07.07.2020 23:00:00 15,1 12,0 14,5 11 6 27 14 SW 1020,1 20 0,0
07.07.2020 22:00:00 15,6 12,3 15,2 16 9 29 16 W 1020,2 - 0,0
07.07.2020 21:00:00 16,1 12,1 16,0 18 10 29 16 W 1020,2 - 0,0
07.07.2020 20:00:00 17,2 12,1 17,9 15 8 30 16 W 1020,4 - 0,0
07.07.2020 19:00:00 18,0 11,5 18,9 16 8 27 15 W 1020,5 - 0,0
07.07.2020 18:00:00 18,1 11,4 19,4 19 10 31 17 W 1020,8 - 0,0
07.07.2020 17:00:00 18,2 11,0 19,4 21 11 37 20 W 1021,3 20 0,0
07.07.2020 16:00:00 17,9 10,5 21,8 29 15 40 22 W 1021,6 - 0,0
07.07.2020 15:00:00 18,1 11,2 21,1 24 13 42 23 W 1021,8 - 0,0
07.07.2020 14:00:00 18,0 11,8 19,8 24 13 36 19 W 1022,1 - 0,0
07.07.2020 13:00:00 17,7 12,8 19,1 22 12 34 18 W 1022,2 - 0,0
07.07.2020 12:00:00 17,9 13,8 18,0 20 11 32 17 WNW 1022,4 - 0,0
07.07.2020 11:00:00 17,5 13,0 20,0 11 6 19 11 WNW 1022,4 20 0,0
07.07.2020 10:00:00 16,7 12,8 18,7 8 4 13 7 W 1022,6 - 0,0
07.07.2020 09:00:00 14,5 11,6 15,2 6 4 17 9 S 1022,6 - 0,0
07.07.2020 08:00:00 12,1 10,5 11,5 11 6 19 10 S 1022,4 - 0,0
07.07.2020 07:00:00 10,6 9,5 9,8 11 6 21 12 S 1022,7 - 0,0
07.07.2020 06:00:00 10,4 9,3 9,7 11 6 19 10 S 1022,5 - 0,0

tt = temperature
td = dewpoint
tt 5cm = temperature 5cm
ff = wind speed
fx = gusts
dd = wind direction
ppp = reduced air pressure
vv = visibility
rr = precipitation

Next stations